owner,sensor,date,latitude,longitude,vertical_datum,direction_of_sea_water_velocity,sea_water_speed,upward_sea_water_velocity,qcFlag 
TABS,ioos:station:wmo:42046:1,2008-11-01T00:00:00Z,27.8903,-94.0367,2.0,284.8801079,2.141821655,-99999.0,'11133222,11111222,99999999' 
TABS,ioos:station:wmo:42046:1,2008-11-01T00:30:00Z,27.8903,-94.0367,2.0,308.0368634,1.866386884,-99999.0,'11133222,11111222,99999999' 
TABS,ioos:station:wmo:42046:1,2008-11-01T01:00:00Z,27.8903,-94.0367,2.0,311.8833344,2.8609439,-99999.0,'11133222,11111222,99999999' 
TABS,ioos:station:wmo:42046:1,2008-11-01T01:30:00Z,27.8903,-94.0367,2.0,246.4321309,2.651131834,-99999.0,'11133222,11111222,99999999' 
TABS,ioos:station:wmo:42046:1,2008-11-01T02:00:00Z,27.8903,-94.0367,2.0,280.53958,1.749514218,-99999.0,'11133222,11111222,99999999' 
TABS,ioos:station:wmo:42046:1,2008-11-01T02:30:00Z,27.8903,-94.0367,2.0,349.7201058,2.073282422,-99999.0,'11133222,11111222,99999999' 
TABS,ioos:station:wmo:42046:1,2008-11-01T03:00:00Z,27.8903,-94.0367,2.0,242.161563,1.006479011,-99999.0,'11133222,11111222,99999999' 
TABS,ioos:station:wmo:42046:1,2008-11-01T03:30:00Z,27.8903,-94.0367,2.0,42.04933302,0.686804193,-99999.0,'11133222,11111222,99999999' 
TABS,ioos:station:wmo:42046:1,2008-11-01T04:00:00Z,27.8903,-94.0367,2.0,177.8424121,2.922071183,-99999.0,'11133222,11111222,99999999' 
TABS,ioos:station:wmo:42046:1,2008-11-01T04:30:00Z,27.8903,-94.0367,2.0,121.4790397,4.385396219,-99999.0,'11133222,11111222,99999999' 
TABS,ioos:station:wmo:42046:1,2008-11-01T05:00:00Z,27.8903,-94.0367,2.0,128.1896474,4.949313084,-99999.0,'11133222,11111222,99999999' 
TABS,ioos:station:wmo:42046:1,2008-11-01T05:30:00Z,27.8903,-94.0367,2.0,164.4826682,4.410770908,-99999.0,'11133222,11111222,99999999' 
TABS,ioos:station:wmo:42046:1,2008-11-01T06:00:00Z,27.8903,-94.0367,2.0,129.9768674,4.280292046,-99999.0,'11133222,11111222,99999999' 
TABS,ioos:station:wmo:42046:1,2008-11-01T06:30:00Z,27.8903,-94.0367,2.0,141.914298,7.635718696,-99999.0,'11133222,11111222,99999999' 
TABS,ioos:station:wmo:42046:1,2008-11-01T07:00:00Z,27.8903,-94.0367,2.0,137.5929074,5.782983659,-99999.0,'11133222,11111222,99999999' 
TABS,ioos:station:wmo:42046:1,2008-11-01T07:30:00Z,27.8903,-94.0367,2.0,146.1745422,5.874291447,-99999.0,'11133222,11111222,99999999' 
TABS,ioos:station:wmo:42046:1,2008-11-01T08:00:00Z,27.8903,-94.0367,2.0,139.3159122,6.76498337,-99999.0,'11133222,11111222,99999999' 
TABS,ioos:station:wmo:42046:1,2008-11-01T08:30:00Z,27.8903,-94.0367,2.0,152.2650009,7.886019275,-99999.0,'11133222,11111222,99999999' 
TABS,ioos:station:wmo:42046:1,2008-11-01T09:00:00Z,27.8903,-94.0367,2.0,141.9697902,8.099660487,-99999.0,'11133222,11111222,99999999' 
TABS,ioos:station:wmo:42046:1,2008-11-01T09:30:00Z,27.8903,-94.0367,2.0,159.8601595,5.314978833,-99999.0,'11133222,11111222,99999999' 
TABS,ioos:station:wmo:42046:1,2008-11-01T10:00:00Z,27.8903,-94.0367,2.0,136.258937,6.436225602,-99999.0,'11133222,11111222,99999999' 
TABS,ioos:station:wmo:42046:1,2008-11-01T10:30:00Z,27.8903,-94.0367,2.0,147.2077095,7.256369616,-99999.0,'11133222,11111222,99999999' 
TABS,ioos:station:wmo:42046:1,2008-11-01T11:00:00Z,27.8903,-94.0367,2.0,179.551476,6.390195615,-99999.0,'11133222,11111222,99999999' 
TABS,ioos:station:wmo:42046:1,2008-11-01T11:30:00Z,27.8903,-94.0367,2.0,170.8509579,8.113211448,-99999.0,'11133222,11111222,99999999' 
TABS,ioos:station:wmo:42046:1,2008-11-01T12:00:00Z,27.8903,-94.0367,2.0,158.3092006,3.842043727,-99999.0,'11133222,11111222,99999999' 
TABS,ioos:station:wmo:42046:1,2008-11-01T12:30:00Z,27.8903,-94.0367,2.0,171.6978934,9.903782106,-99999.0,'11133222,11111222,99999999' 
TABS,ioos:station:wmo:42046:1,2008-11-01T13:00:00Z,27.8903,-94.0367,2.0,172.3491565,8.788230766,-99999.0,'11133222,11111222,99999999' 
TABS,ioos:station:wmo:42046:1,2008-11-01T13:30:00Z,27.8903,-94.0367,2.0,168.360128,8.178178281,-99999.0,'11133222,11111222,99999999' 
TABS,ioos:station:wmo:42046:1,2008-11-01T14:00:00Z,27.8903,-94.0367,2.0,169.4283472,7.303971522,-99999.0,'11133222,11111222,99999999' 
TABS,ioos:station:wmo:42046:1,2008-11-01T14:30:00Z,27.8903,-94.0367,2.0,181.1932762,7.20156233,-99999.0,'11133222,11111222,99999999' 
TABS,ioos:station:wmo:42046:1,2008-11-01T15:00:00Z,27.8903,-94.0367,2.0,193.2149973,7.786192908,-99999.0,'11133222,11111222,99999999' 
TABS,ioos:station:wmo:42046:1,2008-11-01T15:30:00Z,27.8903,-94.0367,2.0,189.4742984,7.715244649,-99999.0,'11133222,11111222,99999999' 
TABS,ioos:station:wmo:42046:1,2008-11-01T16:00:00Z,27.8903,-94.0367,2.0,190.5607755,6.001666435,-99999.0,'11133222,11111222,99999999' 
TABS,ioos:station:wmo:42046:1,2008-11-01T16:30:00Z,27.8903,-94.0367,2.0,183.1932313,7.000871374,-99999.0,'11133222,11111222,99999999' 
TABS,ioos:station:wmo:42046:1,2008-11-01T17:00:00Z,27.8903,-94.0367,2.0,200.8736938,6.539189552,-99999.0,'11133222,11111222,99999999' 
TABS,ioos:station:wmo:42046:1,2008-11-01T17:30:00Z,27.8903,-94.0367,2.0,193.1337811,5.236993412,-99999.0,'11133222,11111222,99999999' 
TABS,ioos:station:wmo:42046:1,2008-11-01T18:00:00Z,27.8903,-94.0367,2.0,185.270448,5.443013871,-99999.0,'11133222,11111222,99999999' 
TABS,ioos:station:wmo:42046:1,2008-11-01T18:30:00Z,27.8903,-94.0367,2.0,188.6495877,4.521426766,-99999.0,'11133222,11111222,99999999' 
TABS,ioos:station:wmo:42046:1,2008-11-01T19:00:00Z,27.8903,-94.0367,2.0,189.1740709,4.578569646,-99999.0,'11133222,11111222,99999999' 
TABS,ioos:station:wmo:42046:1,2008-11-01T19:30:00Z,27.8903,-94.0367,2.0,188.1130558,4.818225815,-99999.0,'11133222,11111222,99999999' 
TABS,ioos:station:wmo:42046:1,2008-11-01T20:00:00Z,27.8903,-94.0367,2.0,215.3920647,5.041676309,-99999.0,'11133222,11111222,99999999' 
TABS,ioos:station:wmo:42046:1,2008-11-01T20:30:00Z,27.8903,-94.0367,2.0,201.7775112,4.50125538,-99999.0,'11133222,11111222,99999999' 
TABS,ioos:station:wmo:42046:1,2008-11-01T21:00:00Z,27.8903,-94.0367,2.0,203.1854475,5.841823345,-99999.0,'11133222,11111222,99999999' 
TABS,ioos:station:wmo:42046:1,2008-11-01T21:30:00Z,27.8903,-94.0367,2.0,209.4564971,5.673420485,-99999.0,'11133222,11111222,99999999' 
TABS,ioos:station:wmo:42046:1,2008-11-01T22:00:00Z,27.8903,-94.0367,2.0,208.6718104,7.419818057,-99999.0,'11133222,11111222,99999999' 
TABS,ioos:station:wmo:42046:1,2008-11-01T22:30:00Z,27.8903,-94.0367,2.0,197.9415524,8.083081096,-99999.0,'11133222,11111222,99999999' 
TABS,ioos:station:wmo:42046:1,2008-11-01T23:00:00Z,27.8903,-94.0367,2.0,202.8759261,6.533911539,-99999.0,'11133222,11111222,99999999' 
TABS,ioos:station:wmo:42046:1,2008-11-01T23:30:00Z,27.8903,-94.0367,2.0,187.0098428,6.800838184,-99999.0,'11133222,11111222,99999999' 
TABS,ioos:station:wmo:42046:1,2008-11-02T00:00:00Z,27.8903,-94.0367,2.0,183.9585743,2.896912149,-99999.0,'11133222,11111222,99999999' 
TABS,ioos:station:wmo:42046:1,2008-11-02T00:30:00Z,27.8903,-94.0367,2.0,190.021498,7.240476504,-99999.0,'11133222,11111222,99999999' 
TABS,ioos:station:wmo:42046:1,2008-11-02T01:00:00Z,27.8903,-94.0367,2.0,188.8415834,5.464942818,-99999.0,'11133222,11111222,99999999' 
TABS,ioos:station:wmo:42046:1,2008-11-02T01:30:00Z,27.8903,-94.0367,2.0,184.9070779,5.961853739,-99999.0,'11133222,11111222,99999999' 
TABS,ioos:station:wmo:42046:1,2008-11-02T02:00:00Z,27.8903,-94.0367,2.0,171.0949894,4.392948896,-99999.0,'11133222,11111222,99999999' 
TABS,ioos:station:wmo:42046:1,2008-11-02T02:30:00Z,27.8903,-94.0367,2.0,169.7708052,4.054442008,-99999.0,'11133222,11111222,99999999' 
TABS,ioos:station:wmo:42046:1,2008-11-02T03:00:00Z,27.8903,-94.0367,2.0,161.6561189,3.971825777,-99999.0,'11133222,11111222,99999999' 
TABS,ioos:station:wmo:42046:1,2008-11-02T03:30:00Z,27.8903,-94.0367,2.0,176.2731533,7.846591617,-99999.0,'11133222,11111222,99999999' 
TABS,ioos:station:wmo:42046:1,2008-11-02T04:00:00Z,27.8903,-94.0367,2.0,156.8533639,5.774859306,-99999.0,'11133222,11111222,99999999' 
TABS,ioos:station:wmo:42046:1,2008-11-02T04:30:00Z,27.8903,-94.0367,2.0,174.24052,4.683641745,-99999.0,'11133222,11111222,99999999' 
TABS,ioos:station:wmo:42046:1,2008-11-02T05:00:00Z,27.8903,-94.0367,2.0,166.228222,7.351333212,-99999.0,'11133222,11111222,99999999' 
TABS,ioos:station:wmo:42046:1,2008-11-02T05:30:00Z,27.8903,-94.0367,2.0,146.8503097,3.822054421,-99999.0,'11133222,11111222,99999999' 
TABS,ioos:station:wmo:42046:1,2008-11-02T06:00:00Z,27.8903,-94.0367,2.0,125.0315619,3.553828921,-99999.0,'11133222,11111222,99999999' 
TABS,ioos:station:wmo:42046:1,2008-11-02T06:30:00Z,27.8903,-94.0367,2.0,120.8541324,2.69081772,-99999.0,'11133222,11111222,99999999' 
TABS,ioos:station:wmo:42046:1,2008-11-02T07:00:00Z,27.8903,-94.0367,2.0,130.0841253,5.528697858,-99999.0,'11133222,11111222,99999999' 
TABS,ioos:station:wmo:42046:1,2008-11-02T07:30:00Z,27.8903,-94.0367,2.0,128.1745843,5.533434738,-99999.0,'11133222,11111222,99999999' 
TABS,ioos:station:wmo:42046:1,2008-11-02T08:00:00Z,27.8903,-94.0367,2.0,118.0118734,3.896472764,-99999.0,'11133222,11111222,99999999' 
TABS,ioos:station:wmo:42046:1,2008-11-02T08:30:00Z,27.8903,-94.0367,2.0,124.1004436,6.581686714,-99999.0,'11133222,11111222,99999999' 
TABS,ioos:station:wmo:42046:1,2008-11-02T09:00:00Z,27.8903,-94.0367,2.0,118.7150104,6.556294685,-99999.0,'11133222,11111222,99999999' 
TABS,ioos:station:wmo:42046:1,2008-11-02T09:30:00Z,27.8903,-94.0367,2.0,101.7840399,5.924871307,-99999.0,'11133222,11111222,99999999' 
TABS,ioos:station:wmo:42046:1,2008-11-02T10:00:00Z,27.8903,-94.0367,2.0,113.4311003,7.116867288,-99999.0,'11133222,11111222,99999999' 
TABS,ioos:station:wmo:42046:1,2008-11-02T10:30:00Z,27.8903,-94.0367,2.0,117.7381148,7.863663268,-99999.0,'11133222,11111222,99999999' 
TABS,ioos:station:wmo:42046:1,2008-11-02T11:00:00Z,27.8903,-94.0367,2.0,128.4402943,6.932604128,-99999.0,'11133222,11111222,99999999' 
TABS,ioos:station:wmo:42046:1,2008-11-02T11:30:00Z,27.8903,-94.0367,2.0,137.6286438,6.321115408,-99999.0,'11133222,11111222,99999999' 
TABS,ioos:station:wmo:42046:1,2008-11-02T12:00:00Z,27.8903,-94.0367,2.0,147.4103288,5.198499784,-99999.0,'11133222,11111222,99999999' 
TABS,ioos:station:wmo:42046:1,2008-11-02T12:30:00Z,27.8903,-94.0367,2.0,149.8030316,6.918872741,-99999.0,'11133222,11111222,99999999' 
TABS,ioos:station:wmo:42046:1,2008-11-02T13:00:00Z,27.8903,-94.0367,2.0,166.4293869,5.668244878,-99999.0,'11133222,11111222,99999999' 
TABS,ioos:station:wmo:42046:1,2008-11-02T13:30:00Z,27.8903,-94.0367,2.0,156.3646983,5.687046685,-99999.0,'11133222,11111222,99999999' 
TABS,ioos:station:wmo:42046:1,2008-11-02T14:00:00Z,27.8903,-94.0367,2.0,158.0862627,4.742668025,-99999.0,'11133222,11111222,99999999' 
TABS,ioos:station:wmo:42046:1,2008-11-02T14:30:00Z,27.8903,-94.0367,2.0,153.6011154,6.162629309,-99999.0,'11133222,11111222,99999999' 
TABS,ioos:station:wmo:42046:1,2008-11-02T15:00:00Z,27.8903,-94.0367,2.0,168.2468848,3.043813398,-99999.0,'11133222,11111222,99999999' 
TABS,ioos:station:wmo:42046:1,2008-11-02T15:30:00Z,27.8903,-94.0367,2.0,186.6817905,2.406345777,-99999.0,'11133222,11111222,99999999' 
TABS,ioos:station:wmo:42046:1,2008-11-02T16:00:00Z,27.8903,-94.0367,2.0,191.5135938,1.653269488,-99999.0,'11133222,11111222,99999999' 
TABS,ioos:station:wmo:42046:1,2008-11-02T16:30:00Z,27.8903,-94.0367,2.0,241.3206099,1.333604139,-99999.0,'11133222,11111222,99999999' 
TABS,ioos:station:wmo:42046:1,2008-11-02T17:00:00Z,27.8903,-94.0367,2.0,20.39503885,1.664331698,-99999.0,'11133222,11111222,99999999' 
TABS,ioos:station:wmo:42046:1,2008-11-02T17:30:00Z,27.8903,-94.0367,2.0,108.6477239,7.662251627,-99999.0,'11133222,11111222,99999999' 
TABS,ioos:station:wmo:42046:1,2008-11-02T18:00:00Z,27.8903,-94.0367,2.0,140.3254123,16.22743664,-99999.0,'11111222,11111222,99999999' 
TABS,ioos:station:wmo:42046:1,2008-11-02T18:30:00Z,27.8903,-94.0367,2.0,145.5775291,15.40805633,-99999.0,'11111222,11111222,99999999' 
TABS,ioos:station:wmo:42046:1,2008-11-02T19:00:00Z,27.8903,-94.0367,2.0,144.7805007,15.48442443,-99999.0,'11111222,11111222,99999999' 
TABS,ioos:station:wmo:42046:1,2008-11-02T19:30:00Z,27.8903,-94.0367,2.0,139.254581,15.53552381,-99999.0,'11111222,11111222,99999999' 
TABS,ioos:station:wmo:42046:1,2008-11-02T20:00:00Z,27.8903,-94.0367,2.0,140.0739743,14.63080654,-99999.0,'11111222,11111222,99999999' 
TABS,ioos:station:wmo:42046:1,2008-11-02T20:30:00Z,27.8903,-94.0367,2.0,141.3205413,13.74485358,-99999.0,'11111222,11111222,99999999' 
TABS,ioos:station:wmo:42046:1,2008-11-02T21:00:00Z,27.8903,-94.0367,2.0,144.9058315,14.26285035,-99999.0,'11111222,11111222,99999999' 
TABS,ioos:station:wmo:42046:1,2008-11-02T21:30:00Z,27.8903,-94.0367,2.0,139.4926643,14.53327561,-99999.0,'11111222,11111222,99999999' 
TABS,ioos:station:wmo:42046:1,2008-11-02T22:00:00Z,27.8903,-94.0367,2.0,130.089038,13.71163739,-99999.0,'11111222,11111222,99999999' 
TABS,ioos:station:wmo:42046:1,2008-11-02T22:30:00Z,27.8903,-94.0367,2.0,137.7090244,13.46421925,-99999.0,'11111222,11111222,99999999' 
TABS,ioos:station:wmo:42046:1,2008-11-02T23:00:00Z,27.8903,-94.0367,2.0,129.7794013,14.06613309,-99999.0,'11111222,11111222,99999999' 
TABS,ioos:station:wmo:42046:1,2008-11-02T23:30:00Z,27.8903,-94.0367,2.0,133.2152463,12.03372345,-99999.0,'11111222,11111222,99999999' 
TABS,ioos:station:wmo:42046:1,2008-11-03T00:00:00Z,27.8903,-94.0367,2.0,138.0126752,5.246913378,-99999.0,'11133222,11111222,99999999' 
TABS,ioos:station:wmo:42046:1,2008-11-03T00:30:00Z,27.8903,-94.0367,2.0,130.7675146,14.94657151,-99999.0,'11111222,11111222,99999999' 
TABS,ioos:station:wmo:42046:1,2008-11-03T01:00:00Z,27.8903,-94.0367,2.0,132.5987123,9.957735686,-99999.0,'11133222,11111222,99999999' 
TABS,ioos:station:wmo:42046:1,2008-11-03T01:30:00Z,27.8903,-94.0367,2.0,134.4459486,10.23938475,-99999.0,'11111222,11111222,99999999' 
TABS,ioos:station:wmo:42046:1,2008-11-03T02:00:00Z,27.8903,-94.0367,2.0,120.1873679,10.75909383,-99999.0,'11111222,11111222,99999999' 
TABS,ioos:station:wmo:42046:1,2008-11-03T02:30:00Z,27.8903,-94.0367,2.0,128.2651142,10.43109294,-99999.0,'11111222,11111222,99999999' 
TABS,ioos:station:wmo:42046:1,2008-11-03T03:00:00Z,27.8903,-94.0367,2.0,122.4156894,11.09952251,-99999.0,'11111222,11111222,99999999' 
TABS,ioos:station:wmo:42046:1,2008-11-03T03:30:00Z,27.8903,-94.0367,2.0,129.4678491,11.51583692,-99999.0,'11111222,11111222,99999999' 
TABS,ioos:station:wmo:42046:1,2008-11-03T04:00:00Z,27.8903,-94.0367,2.0,116.8691281,10.95241526,-99999.0,'11111222,11111222,99999999' 
TABS,ioos:station:wmo:42046:1,2008-11-03T04:30:00Z,27.8903,-94.0367,2.0,114.9365352,9.91425741,-99999.0,'11133222,11111222,99999999' 
TABS,ioos:station:wmo:42046:1,2008-11-03T05:00:00Z,27.8903,-94.0367,2.0,109.2797096,10.50939104,-99999.0,'11111222,11111222,99999999' 
TABS,ioos:station:wmo:42046:1,2008-11-03T05:30:00Z,27.8903,-94.0367,2.0,97.66152422,12.45115256,-99999.0,'11111222,11111222,99999999' 
TABS,ioos:station:wmo:42046:1,2008-11-03T06:00:00Z,27.8903,-94.0367,2.0,88.09220408,14.11782561,-99999.0,'11111222,11111222,99999999' 
TABS,ioos:station:wmo:42046:1,2008-11-03T06:30:00Z,27.8903,-94.0367,2.0,90.0,13.25,-99999.0,'11111222,11111222,99999999' 
TABS,ioos:station:wmo:42046:1,2008-11-03T07:00:00Z,27.8903,-94.0367,2.0,95.61616008,13.28376453,-99999.0,'11111222,11111222,99999999' 
TABS,ioos:station:wmo:42046:1,2008-11-03T07:30:00Z,27.8903,-94.0367,2.0,90.69819194,13.9510358,-99999.0,'11111222,11111222,99999999' 
TABS,ioos:station:wmo:42046:1,2008-11-03T08:00:00Z,27.8903,-94.0367,2.0,98.44750749,14.29509007,-99999.0,'11111222,11111222,99999999' 
TABS,ioos:station:wmo:42046:1,2008-11-03T08:30:00Z,27.8903,-94.0367,2.0,97.02596756,12.91699655,-99999.0,'11111222,11111222,99999999' 
TABS,ioos:station:wmo:42046:1,2008-11-03T09:00:00Z,27.8903,-94.0367,2.0,93.19188831,15.80451834,-99999.0,'11111222,11111222,99999999' 
TABS,ioos:station:wmo:42046:1,2008-11-03T09:30:00Z,27.8903,-94.0367,2.0,90.25111152,13.69013148,-99999.0,'11111222,11111222,99999999' 
TABS,ioos:station:wmo:42046:1,2008-11-03T10:00:00Z,27.8903,-94.0367,2.0,83.21997104,16.6866953,-99999.0,'11111222,11111222,99999999' 
TABS,ioos:station:wmo:42046:1,2008-11-03T10:30:00Z,27.8903,-94.0367,2.0,90.0,15.59,-99999.0,'11111222,11111222,99999999' 
TABS,ioos:station:wmo:42046:1,2008-11-03T11:00:00Z,27.8903,-94.0367,2.0,83.29703325,14.65013993,-99999.0,'11111222,11111222,99999999' 
TABS,ioos:station:wmo:42046:1,2008-11-03T11:30:00Z,27.8903,-94.0367,2.0,84.9120382,13.64376048,-99999.0,'11111222,11111222,99999999' 
TABS,ioos:station:wmo:42046:1,2008-11-03T12:00:00Z,27.8903,-94.0367,2.0,92.66528691,5.806281082,-99999.0,'11133222,11111222,99999999' 
TABS,ioos:station:wmo:42046:1,2008-11-03T12:30:00Z,27.8903,-94.0367,2.0,84.1919831,22.23413817,-99999.0,'11111222,11111222,99999999' 
TABS,ioos:station:wmo:42046:1,2008-11-03T13:00:00Z,27.8903,-94.0367,2.0,82.17000334,22.68146821,-99999.0,'11111222,11111222,99999999' 
TABS,ioos:station:wmo:42046:1,2008-11-03T13:30:00Z,27.8903,-94.0367,2.0,88.08339026,23.02287992,-99999.0,'11111222,11111222,99999999' 
TABS,ioos:station:wmo:42046:1,2008-11-03T14:00:00Z,27.8903,-94.0367,2.0,87.76973483,24.66868663,-99999.0,'11111222,11111222,99999999' 
TABS,ioos:station:wmo:42046:1,2008-11-03T14:30:00Z,27.8903,-94.0367,2.0,89.87908077,28.43006331,-99999.0,'11111222,11111222,99999999' 
TABS,ioos:station:wmo:42046:1,2008-11-03T15:00:00Z,27.8903,-94.0367,2.0,88.35365792,26.80106341,-99999.0,'11111222,11111222,99999999' 
TABS,ioos:station:wmo:42046:1,2008-11-03T15:30:00Z,27.8903,-94.0367,2.0,89.94214511,29.71001515,-99999.0,'11111222,11111222,99999999' 
TABS,ioos:station:wmo:42046:1,2008-11-03T16:00:00Z,27.8903,-94.0367,2.0,90.83056428,33.11347913,-99999.0,'11111222,11111222,99999999' 
TABS,ioos:station:wmo:42046:1,2008-11-03T16:30:00Z,27.8903,-94.0367,2.0,93.77077234,33.45241994,-99999.0,'11111222,11111222,99999999' 
TABS,ioos:station:wmo:42046:1,2008-11-03T17:00:00Z,27.8903,-94.0367,2.0,92.8214567,34.94235825,-99999.0,'11111222,11111222,99999999' 
TABS,ioos:station:wmo:42046:1,2008-11-03T17:30:00Z,27.8903,-94.0367,2.0,91.41214684,37.33133804,-99999.0,'11111222,11111222,99999999' 
TABS,ioos:station:wmo:42046:1,2008-11-03T18:00:00Z,27.8903,-94.0367,2.0,93.22160724,38.79130444,-99999.0,'11111222,11111222,99999999' 
TABS,ioos:station:wmo:42046:1,2008-11-03T18:30:00Z,27.8903,-94.0367,2.0,97.39920026,39.13588762,-99999.0,'11111222,11111222,99999999' 
TABS,ioos:station:wmo:42046:1,2008-11-03T19:00:00Z,27.8903,-94.0367,2.0,94.4066262,38.78465289,-99999.0,'11111222,11111222,99999999' 
TABS,ioos:station:wmo:42046:1,2008-11-03T19:30:00Z,27.8903,-94.0367,2.0,98.80819203,39.31364776,-99999.0,'11111222,11111222,99999999' 
TABS,ioos:station:wmo:42046:1,2008-11-03T20:00:00Z,27.8903,-94.0367,2.0,101.8118649,38.05583529,-99999.0,'11111222,11111222,99999999' 
TABS,ioos:station:wmo:42046:1,2008-11-03T20:30:00Z,27.8903,-94.0367,2.0,105.3796742,39.92991485,-99999.0,'11111222,11111222,99999999' 
TABS,ioos:station:wmo:42046:1,2008-11-03T21:00:00Z,27.8903,-94.0367,2.0,108.228131,38.55474031,-99999.0,'11111222,11111222,99999999' 
TABS,ioos:station:wmo:42046:1,2008-11-03T21:30:00Z,27.8903,-94.0367,2.0,108.593779,37.63441112,-99999.0,'11111222,11111222,99999999' 
TABS,ioos:station:wmo:42046:1,2008-11-03T22:00:00Z,27.8903,-94.0367,2.0,112.8358339,37.33641922,-99999.0,'11111222,11111222,99999999' 
TABS,ioos:station:wmo:42046:1,2008-11-03T22:30:00Z,27.8903,-94.0367,2.0,114.8506894,39.16660823,-99999.0,'11111222,11111222,99999999' 
TABS,ioos:station:wmo:42046:1,2008-11-03T23:00:00Z,27.8903,-94.0367,2.0,116.5181023,38.25466377,-99999.0,'11111222,11111222,99999999' 
TABS,ioos:station:wmo:42046:1,2008-11-03T23:30:00Z,27.8903,-94.0367,2.0,119.9551987,35.46797147,-99999.0,'11111222,11111222,99999999' 
TABS,ioos:station:wmo:42046:1,2008-11-04T00:00:00Z,27.8903,-94.0367,2.0,123.5278221,31.35732769,-99999.0,'11111222,11111222,99999999' 
TABS,ioos:station:wmo:42046:1,2008-11-04T00:30:00Z,27.8903,-94.0367,2.0,123.5519127,26.47037023,-99999.0,'11111222,11111222,99999999' 
TABS,ioos:station:wmo:42046:1,2008-11-04T01:00:00Z,27.8903,-94.0367,2.0,121.5579528,25.79477466,-99999.0,'11111222,11111222,99999999' 
TABS,ioos:station:wmo:42046:1,2008-11-04T01:30:00Z,27.8903,-94.0367,2.0,115.9124738,21.99091858,-99999.0,'11111222,11111222,99999999' 
TABS,ioos:station:wmo:42046:1,2008-11-04T02:00:00Z,27.8903,-94.0367,2.0,120.9922931,24.04238965,-99999.0,'11111222,11111222,99999999' 
TABS,ioos:station:wmo:42046:1,2008-11-04T02:30:00Z,27.8903,-94.0367,2.0,113.4293954,23.13769435,-99999.0,'11111222,11111222,99999999' 
TABS,ioos:station:wmo:42046:1,2008-11-04T03:00:00Z,27.8903,-94.0367,2.0,124.8888992,32.34332852,-99999.0,'11111222,11111222,99999999' 
TABS,ioos:station:wmo:42046:1,2008-11-04T03:30:00Z,27.8903,-94.0367,2.0,126.217247,34.59424374,-99999.0,'11111222,11111222,99999999' 
TABS,ioos:station:wmo:42046:1,2008-11-04T04:00:00Z,27.8903,-94.0367,2.0,127.4440247,35.92180396,-99999.0,'11111222,11111222,99999999' 
TABS,ioos:station:wmo:42046:1,2008-11-04T04:30:00Z,27.8903,-94.0367,2.0,133.3426368,36.91934588,-99999.0,'11111222,11111222,99999999' 
TABS,ioos:station:wmo:42046:1,2008-11-04T05:00:00Z,27.8903,-94.0367,2.0,130.609982,35.38135809,-99999.0,'11111222,11111222,99999999' 
TABS,ioos:station:wmo:42046:1,2008-11-04T05:30:00Z,27.8903,-94.0367,2.0,130.299518,35.63782962,-99999.0,'11111222,11111222,99999999' 
TABS,ioos:station:wmo:42046:1,2008-11-04T06:00:00Z,27.8903,-94.0367,2.0,130.3078335,34.31776362,-99999.0,'11111222,11111222,99999999' 
TABS,ioos:station:wmo:42046:1,2008-11-04T06:30:00Z,27.8903,-94.0367,2.0,132.1904502,34.76780263,-99999.0,'11111222,11111222,99999999' 
TABS,ioos:station:wmo:42046:1,2008-11-04T07:00:00Z,27.8903,-94.0367,2.0,132.5277283,34.42571423,-99999.0,'11111222,11111222,99999999' 
TABS,ioos:station:wmo:42046:1,2008-11-04T07:30:00Z,27.8903,-94.0367,2.0,131.6018352,31.61375808,-99999.0,'11111222,11111222,99999999' 
TABS,ioos:station:wmo:42046:1,2008-11-04T08:00:00Z,27.8903,-94.0367,2.0,129.1282077,32.27907217,-99999.0,'11111222,11111222,99999999' 
TABS,ioos:station:wmo:42046:1,2008-11-04T08:30:00Z,27.8903,-94.0367,2.0,129.5261655,30.4667376,-99999.0,'11111222,11111222,99999999' 
TABS,ioos:station:wmo:42046:1,2008-11-04T09:00:00Z,27.8903,-94.0367,2.0,127.5023285,30.6178657,-99999.0,'11111222,11111222,99999999' 
TABS,ioos:station:wmo:42046:1,2008-11-04T09:30:00Z,27.8903,-94.0367,2.0,128.644083,28.61571946,-99999.0,'11111222,11111222,99999999' 
TABS,ioos:station:wmo:42046:1,2008-11-04T10:00:00Z,27.8903,-94.0367,2.0,128.5436204,30.05882566,-99999.0,'11111222,11111222,99999999' 
TABS,ioos:station:wmo:42046:1,2008-11-04T10:30:00Z,27.8903,-94.0367,2.0,128.7593082,28.751633,-99999.0,'11111222,11111222,99999999' 
TABS,ioos:station:wmo:42046:1,2008-11-04T11:00:00Z,27.8903,-94.0367,2.0,126.1171389,29.53654855,-99999.0,'11111222,11111222,99999999' 
TABS,ioos:station:wmo:42046:1,2008-11-04T11:30:00Z,27.8903,-94.0367,2.0,129.0675592,19.08804076,-99999.0,'11111222,11111222,99999999' 
TABS,ioos:station:wmo:42046:1,2008-11-04T12:00:00Z,27.8903,-94.0367,2.0,136.6857276,10.33530358,-99999.0,'11111222,11111222,99999999' 
TABS,ioos:station:wmo:42046:1,2008-11-04T12:30:00Z,27.8903,-94.0367,2.0,124.406831,29.04082816,-99999.0,'11111222,11111222,99999999' 
TABS,ioos:station:wmo:42046:1,2008-11-04T13:00:00Z,27.8903,-94.0367,2.0,124.1236733,29.68008423,-99999.0,'11111222,11111222,99999999' 
TABS,ioos:station:wmo:42046:1,2008-11-04T13:30:00Z,27.8903,-94.0367,2.0,123.6684753,29.54610803,-99999.0,'11111222,11111222,99999999' 
TABS,ioos:station:wmo:42046:1,2008-11-04T14:00:00Z,27.8903,-94.0367,2.0,121.4462831,29.11634764,-99999.0,'11111222,11111222,99999999' 
TABS,ioos:station:wmo:42046:1,2008-11-04T14:30:00Z,27.8903,-94.0367,2.0,122.5360614,31.12499317,-99999.0,'11111222,11111222,99999999' 
TABS,ioos:station:wmo:42046:1,2008-11-04T15:00:00Z,27.8903,-94.0367,2.0,122.6232161,28.60252611,-99999.0,'11111222,11111222,99999999' 
TABS,ioos:station:wmo:42046:1,2008-11-04T15:30:00Z,27.8903,-94.0367,2.0,120.2058307,27.74746835,-99999.0,'11111222,11111222,99999999' 
TABS,ioos:station:wmo:42046:1,2008-11-04T16:00:00Z,27.8903,-94.0367,2.0,122.7555062,30.44044842,-99999.0,'11111222,11111222,99999999' 